Marlborough, NH (03455)

6:26 AM EDT on August 04, 2015 (GMT -0400)
APRSWXNET | | Change Station
CLOSE
Current Station
Personal Weather Station
Location: Marlborough, NH
Elevation: 754 ft
Nearby Weather Stations

Elev 754 ft 42.91 °N, 72.22 °W | Updated 20 minutes ago

Rain
Rain
62 °F
Feels Like 62 °F
N
0
Wind Variable Wind from SSW
Gusts 0.0 mph

Today
High -- | Low -- °F
--% Chance of Precip.
Yesterday
High -- | Low -- °F
Precip. -- in
5:42 AM 8:06 PM
Waning Gibbous, 79% visible
Pressure 29.86 in
Visibility 4.0 miles
Clouds Scattered Clouds 200 ft
Scattered Clouds 12000 ft
Dew Point 61 °F
Humidity 97%
Rainfall in
Snow Depth Not available.
UV 0 out of 12
Pollen 6.10 out of 12
Air Quality Not available.
Flu Activity Not available.
METAR KEEN 041015Z AUTO 22003KT 4SM SCT002 SCT120 18/14 A2986 RMK AO1 LTG DSNT SW

More Conditions Fewer Conditions

Pressure 29.86 in
Visibility 4.0 miles
Clouds Scattered Clouds 200 ft
Scattered Clouds 12000 ft
Dew Point 61 °F
Humidity 97%
Rainfall in
Snow Depth Not available.
UV 0 out of 12
Pollen 6.10 out of 12
Air Quality Not available.
Flu Activity Not available.
METAR KEEN 041015Z AUTO 22003KT 4SM SCT002 SCT120 18/14 A2986 RMK AO1 LTG DSNT SW

More Conditions Fewer Conditions

10-Day Weather Forecast

×

Almanac

Astronomy

Aug. 04, 2015 Rise Set
Actual Time
Civil Twilight
Nautical Twilight
Astronomical Twilight
Moon
Length of Visible Light
Length of Day
Tomorrow will be .
, % of the Moon is Illuminated

Today's Extremes

State Highs State Lows

Community

WunderPhotos

Upload Photos

1,843,883 photos uploaded!

WunderBlogs® & News

Nearby

Air Quality

  Air Quality AQ Index Pollutant
Not available.

Snow Depth

Station Depth Elevation

Earthquake Activity

City Distance Mag. Time & Date
Minimum magnitude displayed is 2.5.

Coastal Water Temperatures

Place Temperature

Stations

Nearby Weather Stations

Station Location Temp. Windchill Dew Point Humidity Wind Precip. Elev Updated Type